Location: Ladysmith
(45.4630°N, 91.1040°W)
Time: 01:18:46
(UTC-05:00)

Envisat - Visible Passes

Search period start: 26 May 2018 00:00
Search period end: 05 June 2018 00:00
Orbit: 764 x 766 km, 98.2° (Epoch: 25 May)

Date Brightness Start Highest point End Pass type
(mag) Time Alt. Az. Time Alt. Az. Time Alt. Az.
27 May 5.7 21:54:55 10° WSW 21:57:08 13° W 21:59:21 10° WNW visible
28 May 5.0 21:15:43 10° SSW 21:19:59 27° W 21:24:18 10° NW visible
30 May 5.6 21:42:44 10° SW 21:45:50 16° W 21:48:57 10° NW visible
02 Jun 5.5 21:30:51 10° SW 21:34:33 20° W 21:38:16 10° NW visible
04 Jun 5.8 21:58:48 10° WSW 22:00:27 11° W 22:02:08 10° WNW visible
